Weather Roundup
Issued by NWS Springfield, MO

Home | Current Version | Previous Version | Text Only | Print | Product List | Glossary On
Versions: 1 2 3 4 5 6 7 8 9 10 11 12 13 14 15 16 17 18 19 20 21 22 23 24 25 26 27 28 29 30 31 32 33 34 35 36 37 38 39 40 41 42 43 44 45 46 47 48 49 50
000
NZUS99 KSGF 240557
HRRSGF

HOURLY WEATHER
NATIONAL WEATHER SERVICE SPRINGFIELD MO
100 AM CDT SUN JUL 24 2016

......SGF CWA......

CITY           SKY/WX    TMP DP  RH WIND       PRES   REMARKS
SPRINGFIELD    CLEAR     83  74  74 S7        29.95S
6HR MIN TEMP:  82; 6HR MAX TEMP:  95;

JOPLIN         PTCLDY    82  75  79 S7        29.93R
6HR MIN TEMP:  82; 6HR MAX TEMP:  93;

WEST PLAINS    CLEAR     76  70  82 CALM      30.01S
6HR MIN TEMP:  75; 6HR MAX TEMP:  91;


......SURROUNDING SGF CWA......

CITY           SKY/WX    TMP DP  RH WIND       PRES   REMARKS
CHANUTE        CLOUDY    79  72  79 CALM      29.90S
PARSONS        CLEAR     81  71  71 S3        29.91S
COFFEYVILLE    CLEAR     81  72  74 S3        29.90R
EMPORIA          N/A     83  70  64 S13       29.88S
HARRISON AR    CLEAR     77  70  79 SE7       29.98S

......KANSAS AND MISSOURI......

CITY           SKY/WX    TMP DP  RH WIND       PRES   REMARKS
KANSAS CTY INT CLOUDY    84  72  67 S12       29.88S
SEDALIA        CLOUDY    83  76  79 S3        29.93R HX  91
ST JOSEPH      MOCLDY    84  72  67 S8        29.85S
ST LOUIS       PTCLDY    86  73  65 S8        29.95R HX  93
WICHITA        PTCLDY    86  68  54 S12       29.88S
TOPEKA         CLEAR     86  69  56 S8        29.85S HX  90
OLATHE         CLOUDY    82  72  71 S7        29.90S

......TENNESSEE......

CITY           SKY/WX    TMP DP  RH WIND       PRES   REMARKS
MEMPHIS        NOT AVBL
NASHVILLE      PTCLDY    76  70  82 S5        30.00F

......ARKANSAS.......

CITY           SKY/WX    TMP DP  RH WIND       PRES   REMARKS
FAYETTEVILLE   CLEAR     78  72  81 SW5       29.97S
FT SMITH       CLEAR     80  71  74 CALM      29.93S
LITTLE ROCK    MOCLDY    77  71  82 S3        29.94F

......OKLAHOMA.......

CITY           SKY/WX    TMP DP  RH WIND       PRES   REMARKS
TULSA          CLEAR     87  73  62 S8        29.90R HX  94
MCALESTER      MOCLDY    78  72  81 MISG      29.94S
OKLAHOMA CITY  PTCLDY    78  68  71 S7        29.93R

......IOWA............

CITY           SKY/WX    TMP DP  RH WIND       PRES   REMARKS
DES MOINES     NOT AVBL
QUAD CITIES    CLOUDY    79  72  79 S9        29.89F

......ILLINOIS........

CITY           SKY/WX    TMP DP  RH WIND       PRES   REMARKS
QUINCY         NOT AVBL
CHICAGO        LGT RAIN  72  70  93 SE12      29.96F




USA.gov is the U.S. government's official web portal to all federal, state and local government web resources and services.